Location: ??????
(56.0120°N, 39.1740°E)
Time: 11:11:07
(UTC+00:00)

Cosmos 2360 Rocket - Pass Details

Date: 14 April 2026
Orbit: 831 x 845 km, 71.0° (Epoch: 10 May)

Event Time Altitude Azimuth Distance (km) Brightness Sun altitude
Rises 23:09:50 0° 321° (NW) 3,410 5.7 -20.7°
Reaches altitude 10° 23:12:31 10° 331° (NNW) 2,475 5.0 -20.5°
Maximum altitude 23:17:40 34° 36° (NE) 1,369 3.9 -20.2°
Drops below altitude 10° 23:22:48 10° 101° (E) 2,470 4.9 -19.8°
Sets 23:25:29 0° 110° (ESE) 3,403 5.5 -19.6°
